FDX113 KMEM-KMIA

Flight info

Callsign FDX113
Flight time N/A
Altitude 33000
Route BBKNG7 KERMI MGMRY ACORI FROGZ5
Aircraft A306/H-SDE3FGHIRWY/LB1

Departure

Time 2026-05-06 20:22
Airport Memphis International Airport (KMEM)

Arrival

Time N/A
Airport Miami International Airport (KMIA)
Time Latitude Longitude Altitude Speed Heading
2026-05-06 19:43 35.06030 -89.97354 337 ft 0 kts
2026-05-06 20:04 35.06023 -89.97354 334 ft 4 kts
2026-05-06 20:05 35.05996 -89.97354 333 ft 4 kts 356°
2026-05-06 20:05 35.05969 -89.97350 333 ft 4 kts 346°
2026-05-06 20:05 35.05945 -89.97338 331 ft 4 kts 314°
2026-05-06 20:05 35.05937 -89.97323 334 ft 0 kts 272°
2026-05-06 20:11 35.05938 -89.97324 337 ft 2 kts 272°
2026-05-06 20:11 35.05939 -89.97370 333 ft 9 kts 272°
2026-05-06 20:12 35.05939 -89.97443 336 ft 7 kts 262°
2026-05-06 20:12 35.05898 -89.97493 335 ft 9 kts 194°
2026-05-06 20:12 35.05839 -89.97490 335 ft 13 kts 175°
2026-05-06 20:12 35.05756 -89.97485 334 ft 13 kts 180°
2026-05-06 20:13 35.05653 -89.97486 334 ft 16 kts 180°
2026-05-06 20:13 35.05528 -89.97484 334 ft 20 kts 179°
2026-05-06 20:13 35.05378 -89.97482 332 ft 23 kts 180°
2026-05-06 20:13 35.05229 -89.97481 329 ft 20 kts 179°
2026-05-06 20:14 35.05104 -89.97477 331 ft 16 kts 178°
2026-05-06 20:14 35.05000 -89.97474 330 ft 14 kts 179°
2026-05-06 20:14 35.04914 -89.97472 331 ft 11 kts 179°
2026-05-06 20:14 35.04829 -89.97470 331 ft 16 kts 178°
2026-05-06 20:15 35.04703 -89.97466 332 ft 18 kts 179°
2026-05-06 20:15 35.04590 -89.97465 330 ft 15 kts 179°
2026-05-06 20:15 35.04501 -89.97464 332 ft 11 kts 179°
2026-05-06 20:15 35.04389 -89.97463 332 ft 19 kts 181°
2026-05-06 20:16 35.04254 -89.97464 332 ft 19 kts 177°
2026-05-06 20:16 35.04138 -89.97458 331 ft 16 kts 178°
2026-05-06 20:16 35.04004 -89.97454 332 ft 20 kts 179°
2026-05-06 20:16 35.03879 -89.97451 333 ft 17 kts 179°
2026-05-06 20:17 35.03731 -89.97448 331 ft 25 kts 179°
2026-05-06 20:17 35.03552 -89.97444 331 ft 24 kts 179°
2026-05-06 20:17 35.03402 -89.97441 331 ft 19 kts 179°
2026-05-06 20:17 35.03273 -89.97439 331 ft 18 kts 179°
2026-05-06 20:18 35.03157 -89.97436 330 ft 19 kts 178°
2026-05-06 20:18 35.03007 -89.97433 332 ft 21 kts 179°
2026-05-06 20:18 35.02865 -89.97431 332 ft 22 kts 179°
2026-05-06 20:18 35.02712 -89.97427 333 ft 19 kts 179°
2026-05-06 20:19 35.02578 -89.97424 332 ft 19 kts 179°
2026-05-06 20:19 35.02459 -89.97423 331 ft 13 kts 184°
2026-05-06 20:19 35.02414 -89.97488 328 ft 13 kts 259°
2026-05-06 20:19 35.02453 -89.97554 330 ft 7 kts 349°
2026-05-06 20:20 35.02466 -89.97556 329 ft 0 kts 357°
2026-05-06 20:21 35.02700 -89.97561 328 ft 75 kts 359°
2026-05-06 20:21 35.03515 -89.97576 326 ft 151 kts 359°
2026-05-06 20:21 35.04695 -89.97596 879 ft 180 kts 359°
2026-05-06 20:22 35.06004 -89.97593 1860 ft 196 kts
2026-05-06 20:22 35.07412 -89.97424 2459 ft 217 kts 15°
2026-05-06 20:22 35.08869 -89.96606 2839 ft 241 kts 28°
2026-05-06 20:22 35.10373 -89.95540 3452 ft 259 kts 27°
2026-05-06 20:23 35.11962 -89.94406 4321 ft 270 kts 28°
2026-05-06 20:23 35.13427 -89.92875 5214 ft 288 kts 49°
2026-05-06 20:23 35.14183 -89.90564 6189 ft 300 kts 83°
2026-05-06 20:23 35.14197 -89.87994 7192 ft 306 kts 92°
2026-05-06 20:24 35.14104 -89.85371 8174 ft 311 kts 94°
2026-05-06 20:24 35.13857 -89.82748 8857 ft 311 kts 105°
2026-05-06 20:24 35.13292 -89.80223 8946 ft 305 kts 110°
2026-05-06 20:24 35.12660 -89.77748 8498 ft 306 kts 110°
2026-05-06 20:25 35.12019 -89.75281 8521 ft 303 kts 112°
2026-05-06 20:25 35.11199 -89.72879 9018 ft 310 kts 118°
2026-05-06 20:25 35.10278 -89.70472 10069 ft 313 kts 119°
2026-05-06 20:25 35.09336 -89.68020 10847 ft 327 kts 120°
2026-05-06 20:26 35.08329 -89.65410 11244 ft 351 kts 120°
2026-05-06 20:26 35.07257 -89.62618 11588 ft 373 kts 120°
2026-05-06 20:26 35.06130 -89.59670 11953 ft 392 kts 120°
2026-05-06 20:26 35.04963 -89.56606 12513 ft 403 kts 121°
2026-05-06 20:27 35.03776 -89.53484 13171 ft 409 kts 121°
2026-05-06 20:27 35.02570 -89.50317 13854 ft 414 kts 122°
2026-05-06 20:27 35.01344 -89.47102 14401 ft 420 kts 122°
2026-05-06 20:27 35.00100 -89.43846 14901 ft 428 kts 122°
2026-05-06 20:28 34.98831 -89.40531 15400 ft 435 kts 122°
2026-05-06 20:28 34.97537 -89.37157 15884 ft 442 kts 122°
2026-05-06 20:28 34.96223 -89.33731 16410 ft 449 kts 123°
2026-05-06 20:28 34.94890 -89.30260 16937 ft 455 kts 123°
2026-05-06 20:29 34.93535 -89.26736 17456 ft 462 kts 123°
2026-05-06 20:29 34.92176 -89.23217 17958 ft 468 kts 123°
2026-05-06 20:29 34.90946 -89.19494 18386 ft 486 kts 111°
2026-05-06 20:29 34.90263 -89.15424 18900 ft 492 kts 106°
2026-05-06 20:30 34.89633 -89.11315 19403 ft 495 kts 106°
2026-05-06 20:30 34.88314 -89.03037 20360 ft 501 kts 107°
2026-05-06 20:30 34.87622 -88.98869 20851 ft 503 kts 107°
2026-05-06 20:31 34.86918 -88.94680 21316 ft 506 kts 107°
2026-05-06 20:31 34.86202 -88.90461 21769 ft 510 kts 107°
2026-05-06 20:31 34.85480 -88.86223 22238 ft 513 kts 107°
2026-05-06 20:31 34.84753 -88.81970 22702 ft 515 kts 107°
2026-05-06 20:32 34.84018 -88.77687 23156 ft 518 kts 107°
2026-05-06 20:32 34.83277 -88.73375 23562 ft 522 kts 107°
2026-05-06 20:32 34.82529 -88.69040 23924 ft 525 kts 107°
2026-05-06 20:32 34.81774 -88.64677 24271 ft 527 kts 107°
2026-05-06 20:33 34.81013 -88.60290 24596 ft 530 kts 107°
2026-05-06 20:33 34.80247 -88.55880 24927 ft 533 kts 107°
2026-05-06 20:33 34.79478 -88.51458 25260 ft 535 kts 107°
2026-05-06 20:33 34.78964 -88.48511 25448 ft 537 kts 107°
2026-05-06 20:34 34.78186 -88.44062 25783 ft 539 kts 107°
2026-05-06 20:34 34.77404 -88.39596 26097 ft 541 kts 107°
2026-05-06 20:34 34.76618 -88.35121 26383 ft 543 kts 107°
2026-05-06 20:34 34.75826 -88.30619 26660 ft 545 kts 107°
2026-05-06 20:35 34.75022 -88.26085 26933 ft 547 kts 108°
2026-05-06 20:35 34.73961 -88.21669 27185 ft 542 kts 117°
2026-05-06 20:35 34.72294 -88.17612 27449 ft 531 kts 129°
2026-05-06 20:35 34.70078 -88.14098 27616 ft 520 kts 142°
2026-05-06 20:36 34.67417 -88.11214 27864 ft 506 kts 153°
2026-05-06 20:36 34.64520 -88.08816 28128 ft 502 kts 157°
2026-05-06 20:36 34.61565 -88.06555 28433 ft 500 kts 158°
2026-05-06 20:36 34.58598 -88.04359 28799 ft 499 kts 159°
2026-05-06 20:37 34.55668 -88.02205 29157 ft 498 kts 159°
2026-05-06 20:37 34.52673 -87.99997 29513 ft 498 kts 159°
2026-05-06 20:37 34.49753 -87.97834 29801 ft 499 kts 159°
2026-05-06 20:37 34.46795 -87.95626 30142 ft 498 kts 159°
2026-05-06 20:38 34.43849 -87.93418 30424 ft 497 kts 159°
2026-05-06 20:38 34.40906 -87.91205 30791 ft 496 kts 159°
2026-05-06 20:38 34.37983 -87.89003 31182 ft 493 kts 159°
2026-05-06 20:38 34.35079 -87.86816 31552 ft 491 kts 160°
2026-05-06 20:39 34.32175 -87.84636 31938 ft 489 kts 160°
2026-05-06 20:39 34.29289 -87.82468 32300 ft 487 kts 160°
2026-05-06 20:39 34.26411 -87.80315 32687 ft 485 kts 160°
2026-05-06 20:39 34.23572 -87.78196 32904 ft 485 kts 160°
2026-05-06 20:40 34.20735 -87.76075 32927 ft 472 kts 160°
2026-05-06 20:40 34.18000 -87.74014 32908 ft 454 kts 160°
2026-05-06 20:40 34.15350 -87.72018 32923 ft 445 kts 160°
2026-05-06 20:41 34.10055 -87.68101 32937 ft 449 kts 160°
2026-05-06 20:41 34.04696 -87.64158 32931 ft 452 kts 160°
2026-05-06 20:42 33.99345 -87.60187 32938 ft 452 kts 159°
2026-05-06 20:42 33.93986 -87.56212 32938 ft 451 kts 159°
2026-05-06 20:43 33.88635 -87.52252 32939 ft 451 kts 159°